TimeCDT,TemperatureF,Dew PointF,Humidity,Sea Level PressureIn,VisibilityMPH,Wind Direction,Wind SpeedMPH,Gust SpeedMPH,PrecipitationIn,Events,Conditions,WindDirDegrees,DateUTC
12:31 AM,48.2,44.6,87,29.98,10.0,NNW,13.8,20.7,0.00,,Overcast,340,2013-05-04 05:31:00
12:56 AM,48.0,42.1,80,29.97,10.0,North,15.0,28.8,0.00,,Overcast,350,2013-05-04 05:56:00
1:56 AM,46.9,41.0,80,29.95,10.0,NNW,17.3,23.0,N/A,,Overcast,340,2013-05-04 06:56:00
2:56 AM,46.0,39.9,79,29.93,10.0,North,11.5,-,N/A,,Partly Cloudy,350,2013-05-04 07:56:00
3:56 AM,46.0,39.9,79,29.94,10.0,North,12.7,19.6,N/A,,Mostly Cloudy,350,2013-05-04 08:56:00
4:56 AM,45.0,39.0,80,29.94,10.0,North,11.5,-,N/A,,Clear,350,2013-05-04 09:56:00
5:56 AM,43.0,39.0,86,29.95,10.0,NNW,8.1,-,N/A,,Scattered Clouds,330,2013-05-04 10:56:00
6:56 AM,44.1,39.9,85,29.97,10.0,NNW,8.1,-,N/A,,Partly Cloudy,330,2013-05-04 11:56:00
7:56 AM,48.9,39.0,69,29.98,10.0,NNW,8.1,19.6,N/A,,Partly Cloudy,330,2013-05-04 12:56:00
8:56 AM,53.1,37.9,57,29.99,10.0,NNW,11.5,21.9,N/A,,Clear,340,2013-05-04 13:56:00
9:56 AM,57.0,37.9,49,29.98,10.0,NNW,12.7,-,N/A,,Clear,330,2013-05-04 14:56:00
10:56 AM,62.1,36.0,38,29.99,10.0,North,20.7,26.5,N/A,,Clear,350,2013-05-04 15:56:00
11:56 AM,63.0,34.0,34,29.97,10.0,NW,12.7,24.2,N/A,,Clear,310,2013-05-04 16:56:00
12:56 PM,64.9,35.1,33,29.95,10.0,NW,12.7,18.4,N/A,,Clear,310,2013-05-04 17:56:00
1:56 PM,66.9,35.1,31,29.94,10.0,North,15.0,21.9,N/A,,Clear,350,2013-05-04 18:56:00
2:56 PM,68.0,34.0,28,29.92,10.0,NNW,17.3,24.2,N/A,,Clear,340,2013-05-04 19:56:00
3:56 PM,68.0,33.1,27,29.91,10.0,NNW,9.2,20.7,N/A,,Clear,330,2013-05-04 20:56:00
4:56 PM,68.0,33.1,27,29.89,10.0,NW,11.5,20.7,N/A,,Clear,310,2013-05-04 21:56:00
5:56 PM,68.0,35.1,30,29.89,10.0,NNW,5.8,-,N/A,,Clear,330,2013-05-04 22:56:00
6:56 PM,64.0,37.0,37,29.90,10.0,NW,4.6,-,N/A,,Clear,310,2013-05-04 23:56:00
7:56 PM,59.0,41.0,51,29.91,10.0,NW,3.5,-,N/A,,Clear,310,2013-05-05 00:56:00
8:56 PM,54.0,42.1,64,29.93,10.0,Calm,Calm,-,N/A,,Clear,0,2013-05-05 01:56:00
9:56 PM,53.1,46.0,77,29.94,10.0,Calm,Calm,-,N/A,,Clear,0,2013-05-05 02:56:00
10:56 PM,53.1,45.0,74,29.93,10.0,Calm,Calm,-,N/A,,Clear,0,2013-05-05 03:56:00
11:56 PM,53.1,43.0,69,29.91,10.0,ESE,3.5,-,N/A,,Clear,120,2013-05-05 04:56:00